This is the latest recevied weather packets stored in our database for station/object NC4M. If no packets are shown the sender has not sent any weather packets the latest 10 day(s).
| Time | Temp. | Humidity | Pressure | Rain* | Wind** | Luminosity | Snow |
|---|---|---|---|---|---|---|---|
| 1777811438 | 7.22° C | 78% | 1018.9 hPa | 0 mm | - | 30 W/m² | - |
| 1777811135 | 7.22° C | 76% | 1018.9 hPa | 0 mm | - | 29 W/m² | - |
| 1777810832 | 7.22° C | 78% | 1018.9 hPa | 0 mm | - | 27 W/m² | - |
| 1777810529 | 6.67° C | 77% | 1019 hPa | 0 mm | - | 25 W/m² | - |
| 1777810226 | 6.67° C | 79% | 1019 hPa | 0 mm | - | 24 W/m² | - |
| 1777809922 | 6.67° C | 80% | 1018.9 hPa | 0 mm | - | 22 W/m² | - |
| 1777809620 | 6.67° C | 79% | 1018.8 hPa | 0 mm | - | 21 W/m² | - |
| 1777809317 | 6.11° C | 78% | 1018.8 hPa | 0 mm | - | 19 W/m² | - |
| 1777809015 | 6.11° C | 79% | 1018.9 hPa | 0 mm | - | 17 W/m² | - |
| 1777808712 | 6.11° C | 81% | 1018.7 hPa | 0 mm | - | 15 W/m² | - |
| 1777808408 | 5.56° C | 80% | 1018.6 hPa | 0 mm | - | 13 W/m² | - |
| 1777808107 | 5.56° C | 80% | 1018.5 hPa | 0 mm | - | 11 W/m² | - |
| 1777807804 | 5.56° C | 81% | 1018.5 hPa | 0 mm | - | 9 W/m² | - |
| 1777807502 | 5.56° C | 83% | 1018.6 hPa | 0 mm | - | 7 W/m² | - |
| 1777807198 | 5° C | 84% | 1018.3 hPa | 0 mm | - | 5 W/m² | - |
| 1777806895 | 5° C | 86% | 1018.5 hPa | 0 mm | - | 3 W/m² | - |
| 1777806591 | 4.44° C | 88% | 1018.4 hPa | 0 mm | - | 2 W/m² | - |
| 1777806287 | 3.89° C | 91% | 1018.4 hPa | 0 mm | - | 1 W/m² | - |
| 1777805984 | 3.33° C | 94% | 1018.5 hPa | 0 mm | - | 1 W/m² | - |
| 1777805681 | 3.33° C | 94% | 1018.4 hPa | 0 mm | - | 0 W/m² | - |
| 1777805378 | 3.33° C | 94% | 1018.4 hPa | 0 mm | - | 0 W/m² | - |
| 1777805077 | 3.33° C | 95% | 1018.5 hPa | 0 mm | - | 0 W/m² | - |
| 1777804773 | 2.78° C | 95% | 1018.5 hPa | 0 mm | - | 0 W/m² | - |
| 1777804472 | 2.78° C | 94% | 1018.4 hPa | 0 mm | - | 0 W/m² | - |
| 1777804168 | 2.78° C | 94% | 1018.6 hPa | 0 mm | - | 0 W/m² | - |
* Rain latest hour (hover to see other rain measurements)
** Current wind speed in m/s (hover to see current wind gust speed)